User: anonymous   Login
Location: Newark
(44.1667°N, 8.2500°E)
Time: 03:05:38
(UTC+00:00)
Language:

Vanguard 1 - Orbit

View from above orbital plane
View from above orbital plane
View from above satellite
View from above satellite

Ground track
Ground track

The orbit data is extracted from the following two-line orbital elements,

1     5U 58002B   19339.42584062  .00000084  00000-0  91083-4 0  9993
2     5  34.2476 109.0956 1844160 194.7718 159.0972 10.84786530184170
Epoch (UTC): 05 December 2019 10:13:12
Eccentricity: 0.1844160
inclination: 34.2476°
perigee height: 652 km
apogee height: 3831 km
right ascension of ascending node: 109.0956°
argument of perigee: 194.7718°
revolutions per day: 10.84786530
mean anomaly at epoch: 159.0972°
orbit number at epoch: 18417

The dashed part of the orbit path shows where the satellite is in the earth's shadow,  

DLR